EN

Hourly Weather Abbotsford

Today, 13 June, Sunday

Time Temperature Precipitation Wind Pressure Humidity
00:00 +15°C° 0.1 mm 1 mps 749 mmHg 75%
01:00 +15°C° 0.1 mm 1 mps 749 mmHg 79%
02:00 +15°C° 0.5 mm 1 mps 750 mmHg 85%
03:00 +14°C° 0.5 mm 1 mps 750 mmHg 91%
04:00 +14°C° 0.5 mm 1 mps 751 mmHg 97%
05:00 +14°C° 1.1 mm 1 mps 751 mmHg 97%
06:00 +14°C° 1.1 mm 1 mps 751 mmHg 97%
07:00 +14°C° 1.1 mm 1 mps 751 mmHg 98%
08:00 +14°C° 0.8 mm 1 mps 751 mmHg 97%
09:00 +15°C° 0.8 mm 1 mps 751 mmHg 97%
10:00 +15°C° 0.8 mm 1 mps 751 mmHg 97%
11:00 +16°C° 0.8 mm 1 mps 751 mmHg 97%
12:00 +18°C° 0.8 mm 1 mps 752 mmHg 96%
13:00 +18°C° 0.8 mm 1 mps 752 mmHg 95%
14:00 +18°C° 1.3 mm 1 mps 752 mmHg 96%
15:00 +18°C° 1.3 mm 1 mps 752 mmHg 96%
16:00 +18°C° 1.3 mm 1 mps 752 mmHg 96%
17:00 +18°C° 0.5 mm 1 mps 752 mmHg 96%
18:00 +16°C° 0.5 mm 1 mps 752 mmHg 97%
19:00 +16°C° 0.5 mm 1 mps 751 mmHg 97%
20:00 +16°C° 0 mm 1 mps 751 mmHg 97%
21:00 +16°C° 0 mm 1 mps 751 mmHg 96%
22:00 +15°C° 0 mm 1 mps 752 mmHg 96%
23:00 +15°C° 0 mm 1 mps 751 mmHg 96%

Tomorrow, 14 June, Monday

Time Temperature Precipitation Wind Pressure Humidity
00:00 +14°C° 0 mm 1 mps 751 mmHg 96%
01:00 +14°C° 0 mm 1 mps 751 mmHg 96%
02:00 +14°C° 0 mm 1 mps 751 mmHg 95%
03:00 +14°C° 0 mm 1 mps 752 mmHg 95%
04:00 +14°C° 0 mm 1 mps 752 mmHg 95%
05:00 +15°C° 0 mm 1 mps 752 mmHg 92%
06:00 +16°C° 0 mm 1 mps 752 mmHg 90%
07:00 +16°C° 0 mm 0 mps 752 mmHg 87%
08:00 +19°C° 0.1 mm 1 mps 753 mmHg 83%
09:00 +20°C° 0.1 mm 1 mps 753 mmHg 79%
10:00 +21°C° 0.1 mm 1 mps 753 mmHg 75%
11:00 +21°C° 0.4 mm 1 mps 753 mmHg 75%
12:00 +21°C° 0.4 mm 1 mps 753 mmHg 74%
13:00 +20°C° 0.4 mm 2 mps 754 mmHg 74%
14:00 +21°C° 0.2 mm 1 mps 754 mmHg 74%
15:00 +21°C° 0.2 mm 1 mps 754 mmHg 74%
16:00 +20°C° 0.2 mm 1 mps 754 mmHg 74%
17:00 +20°C° 0.1 mm 1 mps 754 mmHg 77%
18:00 +19°C° 0.1 mm 1 mps 754 mmHg 79%
19:00 +19°C° 0.1 mm 1 mps 754 mmHg 81%
20:00 +18°C° 0 mm 1 mps 754 mmHg 86%
21:00 +15°C° 0 mm 1 mps 754 mmHg 90%
22:00 +14°C° 0 mm 1 mps 754 mmHg 94%
23:00 +13°C° 0.2 mm 1 mps 754 mmHg 95%

Day after tomorrow, 15 June, Tuesday

Time Temperature Precipitation Wind Pressure Humidity
00:00 +13°C° 0.2 mm 1 mps 754 mmHg 95%
01:00 +12°C° 0.2 mm 1 mps 754 mmHg 95%
02:00 +12°C° 0.4 mm 1 mps 755 mmHg 96%
03:00 +11°C° 0.4 mm 1 mps 755 mmHg 96%
04:00 +11°C° 0.4 mm 1 mps 755 mmHg 97%
05:00 +12°C° 0.2 mm 1 mps 756 mmHg 95%
06:00 +13°C° 0.2 mm 1 mps 756 mmHg 93%
07:00 +14°C° 0.2 mm 0 mps 757 mmHg 92%
08:00 +16°C° 0.1 mm 1 mps 757 mmHg 82%
09:00 +18°C° 0.1 mm 1 mps 757 mmHg 72%
10:00 +19°C° 0.1 mm 2 mps 757 mmHg 62%
11:00 +19°C° 0.3 mm 2 mps 757 mmHg 61%
12:00 +19°C° 0.3 mm 2 mps 757 mmHg 60%
13:00 +20°C° 0.3 mm 2 mps 757 mmHg 59%
14:00 +20°C° 0.2 mm 2 mps 757 mmHg 58%
15:00 +20°C° 0.2 mm 2 mps 757 mmHg 57%
16:00 +20°C° 0.2 mm 2 mps 757 mmHg 56%
17:00 +19°C° 0.2 mm 2 mps 758 mmHg 64%
18:00 +17°C° 0.2 mm 2 mps 758 mmHg 71%
19:00 +16°C° 0.2 mm 2 mps 759 mmHg 79%
20:00 +15°C° 0.1 mm 1 mps 759 mmHg 82%
21:00 +14°C° 0.1 mm 1 mps 760 mmHg 85%
22:00 +13°C° 0.1 mm 1 mps 761 mmHg 89%
23:00 +12°C° 0 mm 1 mps 761 mmHg 89%

16 June, Wednesday

Time Temperature Precipitation Wind Pressure Humidity
00:00 +12°C° 0 mm 1 mps 761 mmHg 90%
01:00 +11°C° 0 mm 1 mps 762 mmHg 91%
02:00 +11°C° 0 mm 1 mps 762 mmHg 92%
03:00 +11°C° 0 mm 1 mps 762 mmHg 92%
04:00 +11°C° 0 mm 1 mps 762 mmHg 93%
05:00 +12°C° 0 mm 1 mps 762 mmHg 88%
06:00 +14°C° 0 mm 1 mps 763 mmHg 83%
07:00 +14°C° 0 mm 0 mps 763 mmHg 78%
08:00 +18°C° 0 mm 1 mps 763 mmHg 70%
09:00 +19°C° 0 mm 1 mps 762 mmHg 62%
10:00 +21°C° 0 mm 1 mps 762 mmHg 54%
11:00 +22°C° 0 mm 1 mps 762 mmHg 51%
12:00 +21°C° 0 mm 2 mps 761 mmHg 48%
13:00 +23°C° 0 mm 2 mps 761 mmHg 45%
14:00 +23°C° 0 mm 2 mps 761 mmHg 45%
15:00 +23°C° 0 mm 2 mps 760 mmHg 46%
16:00 +23°C° 0 mm 2 mps 760 mmHg 46%
17:00 +21°C° 0 mm 2 mps 760 mmHg 55%
18:00 +21°C° 0 mm 1 mps 760 mmHg 64%
19:00 +19°C° 0 mm 1 mps 760 mmHg 73%
20:00 +16°C° 0 mm 1 mps 760 mmHg 79%
21:00 +15°C° 0 mm 1 mps 760 mmHg 85%
22:00 +13°C° 0 mm 1 mps 760 mmHg 91%
23:00 +13°C° 0 mm 1 mps 760 mmHg 91%

17 June, Thursday

Time Temperature Precipitation Wind Pressure Humidity
00:00 +12°C° 0 mm 1 mps 760 mmHg 91%
01:00 +12°C° 0 mm 1 mps 760 mmHg 90%
02:00 +12°C° 0 mm 1 mps 760 mmHg 89%
03:00 +12°C° 0 mm 1 mps 760 mmHg 88%
04:00 +12°C° 0 mm 1 mps 760 mmHg 87%
05:00 +14°C° 0 mm 1 mps 760 mmHg 78%
06:00 +16°C° 0 mm 1 mps 760 mmHg 68%
07:00 +19°C° 0 mm 1 mps 760 mmHg 59%
08:00 +21°C° 0 mm 1 mps 760 mmHg 54%
09:00 +23°C° 0 mm 1 mps 759 mmHg 49%
10:00 +25°C° 0 mm 1 mps 759 mmHg 44%
11:00 +26°C° 0 mm 2 mps 759 mmHg 42%
12:00 +27°C° 0 mm 2 mps 758 mmHg 40%
13:00 +28°C° 0 mm 2 mps 758 mmHg 39%
14:00 +28°C° 0 mm 2 mps 757 mmHg 40%
15:00 +28°C° 0 mm 2 mps 757 mmHg 41%
16:00 +28°C° 0 mm 2 mps 757 mmHg 42%
17:00 +27°C° 0 mm 1 mps 756 mmHg 52%
18:00 +25°C° 0 mm 1 mps 756 mmHg 62%
19:00 +23°C° 0 mm 1 mps 756 mmHg 72%
20:00 +22°C° 0 mm 1 mps 756 mmHg 74%
21:00 +20°C° 0 mm 1 mps 756 mmHg 77%
22:00 +18°C° 0 mm 1 mps 756 mmHg 80%
23:00 +18°C° 0 mm 1 mps 756 mmHg 79%

18 June, Friday

Time Temperature Precipitation Wind Pressure Humidity
00:00 +18°C° 0 mm 1 mps 756 mmHg 78%
01:00 +16°C° 0 mm 1 mps 756 mmHg 76%
02:00 +16°C° 0 mm 1 mps 756 mmHg 75%
03:00 +16°C° 0 mm 1 mps 756 mmHg 73%
04:00 +16°C° 0 mm 1 mps 755 mmHg 71%
05:00 +19°C° 0 mm 1 mps 755 mmHg 64%
06:00 +21°C° 0 mm 1 mps 755 mmHg 58%
07:00 +21°C° 0 mm 0 mps 755 mmHg 52%
08:00 +25°C° 0 mm 1 mps 754 mmHg 47%
09:00 +27°C° 0 mm 1 mps 754 mmHg 42%
10:00 +29°C° 0 mm 1 mps 754 mmHg 37%
11:00 +29°C° 0 mm 2 mps 754 mmHg 37%
12:00 +30°C° 0 mm 2 mps 754 mmHg 37%
13:00 +31°C° 0 mm 2 mps 753 mmHg 37%
14:00 +30°C° 0 mm 2 mps 753 mmHg 38%
15:00 +30°C° 0 mm 2 mps 753 mmHg 39%
16:00 +29°C° 0 mm 2 mps 752 mmHg 41%
17:00 +27°C° 0 mm 2 mps 752 mmHg 51%
18:00 +25°C° 0 mm 1 mps 752 mmHg 61%
19:00 +23°C° 0 mm 1 mps 752 mmHg 71%
20:00 +22°C° 0 mm 1 mps 752 mmHg 74%
21:00 +20°C° 0 mm 1 mps 753 mmHg 77%
22:00 +18°C° 0 mm 1 mps 753 mmHg 80%
23:00 +16°C° 0 mm 1 mps 753 mmHg 80%
Show more